Probability
0 0 0 0 0 0 0 0 0 0 0 0 0 0 0 0 0 0 0 0 0 0 0 0 0 0 0 0 0 0 0 0 0 0 0 0 0 0 0 0 0 0 0
0 0 0 0 0 0 0 0 0 0 0 0 0 0 0 0 0 0 0 0 0 0 0 0 0 0 0 0 0 0 0 0 0 0 0 0 0 0 0 0 0 0 0
0 0 0 0 0 0 0 0 0 0 0 0 0 0 0 0 0 0 0 0 0 0 0 0 0 0 0 0 0 0 0 0 0 0 0 0 0 0 0 0 0 0 0
0 0 0 0 0 0 0 0 0 0 0 0 0 0 0 0 0 0 0 0 0 0 0 0 0 0 0 0 0 0 0 0 0 0 0 0 0 0 0 0 0 0 0
0 0 0 0 0 0 0 0 0 0 0 0 0 0 0 0 0 0 0 0 0 0 0 0 0 0 0 0 0 0 0 0 0 0 0 0 0 0 0 0 0 0 0
0 0 0 0 0 0 0 0 0 0 0 0 0 0 0 0 0 0 0 0 0 0 0 0 0 0 0 0 0 0 0 0 0 0 0 0 0 0 0 0 0 0 0
0 0 0 0 0 0 0 0 0 0 0 0 0 0 0 0 0 0 0 0 0 0 0 0 0 0 0 0 0 0 0 0 0 0 0 0 0 0 0 0 0 0 0
0 0 0 0 0 0 0 0 0 0 0 0 0 0 0 0 0 0 0 0 0 0 0 0 0 0 0 0 0 0 0 0 0 0 0 0 0 0 0 0 0 0 0
0 0 0 0 0 0 0 0 0 0 0 0 0 0 0 0 0 0 0 0 0 0 0 0 0 0 0 0 0 0 0 0 0 0 0 0 0 0 0 0 0 0 0
0 0 0 0 0 0 0 0 0 0 0 0 0 0 0 0 0 0 0 0 0 0 0 0 0 0 0 0 0 0 0 0 0 0 0 0 0 0 0 0 0 0 0
0 0 0 0 0 0 0 0 0 0 0 0 0 0 0 0 0 0 0 0 0 0 0 0 0 0 0 0 0 0 0 0 0 0 0 0 0 0 0 0 0 0 0
0 0 0 0 0 0 0 0 0 0 0 0 0 0 0 0 0 0 0 0 0 0 0 0 0 0 0 0 0 0 0 0 0 0 0 0 0 0 0 0 0 0 0
0 0 0 0 0 0 0 0 0 0 0 0 0 0 0 0 0 0 0 0 0 0 0 0 0 0 0 0 0 0 0 0 0 0 0 0 0 0 0 0 0 0 0
0 0 0 0 0 0 0 0 0 0 0 0 0 0 0 0 0 0 0 0 0 0 0 0 0 0 0 0 0 0 0 0 0 0 0 0 0 0 0 0 0 0 0
0 0 0 0 0 0 0 0 0 0 0 0 0 0 0 0 0 0 0 0 0 0 0 0 0 0 0 0 0 0 0 0 0 0 0 0 0 0 0 0 0 0 0
0 0 0 0 0 0 0 0 0 0 0 0 0 0 0 0 0 0 0 0 0 0 0 0 0 0 0 0 0 0 0 0 0 0 0 0 0 0 0 0 0 0 0
0 0 0 0 0 0 0 0 0 0 0 0 0 0 0 0 0 0 0 0 0 0 0 0 0 0 0 0 0 0 0 0 0 0 0 0 0 0 0 0 0 0 0
0 0 0 0 0 0 0 0 0 0 0 0 0 0 0 0 0 0 0 0 0 0 0 0 0 0 0 0 0 0 0 0 0 0 0 0 0 0 0 0 0 0 0
0 0 0 0 0 0 0 0 0 0 0 0 0 0 0 0 0 0 0 0 0 0 0 0 0 0 0 0 0 0 0 0 0 0 0 0 0 0 0 0 0 0 0
0 0 0 0 0 0 0 0 0 0 0 0 0 0 0 0 0 0 0 0 0 0 0 0 0 0 0 0 0 0 0 0 0 0 0 0 0 0 0 0 0 0 0
0 0 0 0 0 0 0 0 0 0 0 0 0 0 0 0 0 0 0 0 0 0 0 0 0 0 0 0 0 0 0 0 0 0 0 0 0 0 0 0 0 0 0
0 0 0 0 0 0 0 0 0 0 0 0 0 0 0 0 0 0 0 0 0 0 0 0 0 0 0 0 0 0 0 0 0 0 0 0 0 0 0 0 0 0 0
0 0 0 0 0 0 0 0 0 0 0 0 0 0 0 0 0 0 0 0 0 0 0 0 0 0 0 0 0 0 0 0 0 0 0 0 0 0 0 0 0 0 0
0 0 0 0 0 0 0 0 0 0 0 0 0 0 0 0 0 0 0 0 0 0 0 0 0 0 0 0 0 0 0 0 0 0 0 0 0 0 0 0 0 0 0
0 0 0 0 0 0 0 0 0 0 0 0 0 0 0 0 0 0 0 0 0 0 0 0 0 0 0 0 0 0 0 0 0 0 0 0 0 0 0 0 0 0 0
0 0 0 0 0 0 0 0 0 0 0 0 0 0 0 0 0 0 0 0 0 0 0 0 0 0 0 0 0 0 0 0 0 0 0 0 0 0 0 0 0 0 0
Height
5679 5678 5677 5675 5674 5672 5670 5669 5667 5666 5664 5662 5660 5658 5657 5656 5655 5654 5654 5653 5653 5652 5652 5652 5652 5652 5652 5652 5652 5653 5654 5654 5657 5659 5660 5660 5660 5661 5662 5663 5664 5664 5665
5668 5667 5666 5664 5662 5661 5659 5657 5656 5654 5652 5650 5649 5647 5646 5644 5643 5642 5642 5641 5640 5640 5640 5640 5640 5640 5640 5639 5639 5640 5640 5641 5643 5645 5646 5647 5647 5648 5648 5649 5649 5650 5651
5657 5656 5654 5652 5651 5649 5647 5646 5644 5642 5640 5638 5637 5635 5634 5632 5631 5630 5629 5628 5628 5628 5628 5628 5628 5627 5627 5626 5626 5626 5627 5628 5629 5631 5632 5633 5633 5634 5634 5635 5635 5635 5636
5646 5644 5642 5640 5639 5637 5635 5633 5631 5629 5627 5626 5624 5623 5622 5620 5619 5618 5617 5616 5616 5615 5615 5615 5615 5614 5614 5613 5613 5613 5614 5615 5616 5617 5618 5618 5619 5619 5620 5621 5621 5621 5621
5634 5632 5630 5628 5626 5624 5622 5621 5619 5617 5615 5613 5612 5611 5609 5608 5607 5606 5605 5604 5604 5603 5603 5602 5601 5601 5600 5600 5600 5600 5601 5602 5602 5603 5604 5604 5604 5605 5606 5607 5607 5607 5607
5622 5620 5618 5616 5614 5612 5610 5608 5606 5604 5603 5601 5600 5599 5598 5596 5595 5594 5594 5593 5592 5591 5590 5589 5589 5588 5588 5587 5587 5587 5588 5589 5589 5590 5590 5590 5591 5591 5592 5592 5593 5593 5594
5611 5609 5606 5604 5602 5600 5598 5596 5595 5593 5592 5590 5589 5588 5587 5585 5584 5583 5582 5581 5580 5579 5578 5577 5577 5576 5575 5574 5574 5574 5575 5575 5576 5577 5577 5577 5578 5578 5579 5579 5579 5579 5579
5599 5597 5594 5592 5590 5588 5587 5585 5584 5582 5581 5579 5578 5577 5576 5575 5574 5572 5571 5570 5569 5568 5567 5566 5565 5564 5563 5563 5562 5562 5562 5562 5563 5564 5564 5564 5564 5564 5565 5565 5565 5565 5565
5587 5585 5583 5581 5579 5577 5576 5574 5573 5572 5570 5569 5568 5566 5566 5564 5563 5562 5560 5559 5558 5557 5556 5554 5553 5553 5552 5551 5551 5550 5550 5550 5550 5550 5550 5550 5551 5551 5551 5551 5551 5551 5551
5576 5574 5571 5570 5568 5567 5566 5564 5563 5561 5560 5559 5558 5557 5556 5554 5553 5552 5550 5549 5548 5547 5545 5544 5542 5541 5540 5539 5539 5538 5538 5538 5538 5537 5537 5537 5537 5538 5538 5538 5538 5538 5537
5565 5563 5561 5559 5558 5557 5555 5554 5553 5552 5550 5549 5548 5547 5546 5544 5543 5542 5541 5539 5538 5537 5535 5534 5532 5531 5530 5528 5527 5527 5526 5526 5525 5525 5525 5525 5525 5525 5525 5525 5525 5524 5524
5554 5552 5551 5549 5548 5546 5545 5544 5543 5542 5541 5540 5538 5537 5536 5535 5533 5532 5531 5530 5528 5527 5525 5524 5522 5520 5519 5517 5516 5515 5514 5513 5513 5513 5513 5513 5513 5513 5513 5513 5512 5511 5510
5544 5542 5540 5539 5537 5536 5535 5534 5533 5532 5531 5530 5529 5528 5526 5525 5524 5522 5521 5520 5518 5517 5515 5514 5512 5510 5508 5506 5505 5503 5502 5501 5501 5501 5501 5502 5502 5502 5501 5501 5500 5498 5497
5533 5531 5530 5529 5528 5526 5525 5524 5523 5522 5521 5520 5519 5518 5517 5515 5514 5513 5512 5510 5509 5507 5505 5503 5501 5499 5498 5496 5494 5493 5491 5490 5490 5490 5490 5490 5490 5490 5489 5488 5487 5486 5484
5522 5521 5520 5519 5518 5516 5515 5514 5513 5512 5511 5511 5510 5509 5508 5506 5505 5503 5502 5501 5499 5497 5495 5494 5492 5490 5487 5485 5484 5482 5481 5480 5479 5479 5479 5479 5479 5478 5477 5476 5475 5473 5472
5512 5511 5510 5509 5508 5507 5505 5504 5503 5503 5502 5501 5500 5499 5498 5497 5495 5494 5493 5491 5489 5487 5486 5484 5482 5480 5477 5475 5474 5472 5471 5470 5469 5469 5468 5468 5467 5466 5466 5464 5462 5461 5459
5502 5501 5500 5499 5498 5497 5496 5495 5494 5493 5492 5491 5490 5489 5489 5487 5486 5485 5483 5481 5479 5478 5476 5474 5472 5470 5467 5465 5464 5462 5461 5460 5459 5458 5458 5457 5456 5454 5453 5452 5450 5448 5446
5492 5491 5490 5490 5489 5488 5487 5486 5485 5484 5483 5482 5481 5480 5479 5478 5476 5475 5473 5472 5470 5468 5466 5464 5462 5459 5457 5455 5453 5452 5451 5450 5449 5448 5447 5445 5444 5443 5441 5439 5437 5435 5433
5482 5481 5480 5480 5479 5479 5478 5477 5476 5475 5474 5473 5472 5471 5469 5468 5467 5465 5463 5462 5460 5458 5456 5454 5452 5449 5447 5445 5443 5442 5440 5439 5438 5437 5435 5434 5432 5431 5429 5427 5425 5422 5419
5472 5471 5471 5470 5470 5469 5469 5468 5467 5466 5465 5464 5463 5461 5460 5458 5457 5455 5453 5451 5450 5448 5445 5443 5442 5440 5437 5435 5434 5432 5430 5428 5427 5426 5424 5422 5421 5419 5417 5415 5412 5409 5406
5462 5462 5461 5461 5460 5460 5459 5458 5457 5456 5455 5454 5453 5452 5450 5449 5447 5445 5443 5441 5439 5437 5435 5434 5432 5430 5428 5426 5424 5422 5420 5418 5416 5415 5413 5411 5409 5407 5405 5402 5400 5397 5394
5452 5452 5452 5451 5451 5450 5449 5449 5448 5447 5446 5444 5443 5442 5440 5438 5436 5435 5433 5431 5429 5427 5425 5424 5422 5420 5418 5416 5414 5412 5410 5408 5406 5404 5402 5399 5397 5395 5393 5391 5388 5385 5382
5442 5442 5442 5441 5441 5440 5440 5439 5438 5437 5436 5434 5433 5432 5430 5428 5426 5424 5423 5421 5419 5417 5415 5414 5412 5410 5409 5406 5404 5402 5400 5398 5395 5393 5391 5389 5386 5384 5382 5379 5376 5373 5370
5432 5432 5432 5431 5431 5430 5430 5429 5428 5427 5425 5424 5422 5421 5419 5418 5416 5414 5412 5410 5409 5407 5405 5404 5402 5401 5399 5397 5394 5392 5390 5387 5385 5383 5380 5378 5376 5374 5371 5368 5365 5362 5359
5422 5422 5421 5421 5421 5420 5419 5419 5418 5416 5415 5413 5412 5410 5409 5407 5405 5403 5402 5400 5399 5397 5396 5394 5392 5391 5389 5386 5384 5382 5380 5377 5375 5373 5371 5368 5366 5364 5361 5358 5355 5352 5348
5411 5411 5411 5410 5410 5409 5409 5408 5407 5406 5404 5403 5401 5399 5398 5396 5395 5393 5391 5390 5388 5387 5386 5384 5383 5381 5379 5377 5374 5372 5370 5368 5366 5363 5361 5359 5356 5354 5351 5348 5345 5342 5338
Wind_Speed
39 39 40 41 41 41 42 42 42 42 41 40 40 40 40 41 42 42 42 42 43 43 43 44 44 44 45 45 46 47 48 47 47 46 48 49 49 50 50 50 50 51 52
40 40 41 41 41 42 42 42 42 42 41 40 40 40 40 41 42 42 42 42 43 43 43 43 44 44 44 45 46 48 47 47 47 47 48 49 50 50 50 50 50 50 51
40 41 41 41 41 42 43 43 42 42 42 42 41 41 41 41 41 41 42 41 42 43 43 43 43 43 44 45 46 46 46 47 47 48 48 49 50 51 50 50 50 50 50
39 40 41 41 42 42 42 42 43 43 43 42 42 41 41 41 41 41 40 41 41 41 42 42 43 44 44 44 44 45 45 46 46 47 47 47 48 49 49 49 49 49 49
40 41 41 42 42 42 42 42 42 42 42 41 41 41 41 40 40 40 40 40 40 41 41 42 42 42 42 42 43 43 44 44 45 45 46 46 47 48 48 48 48 48 48
41 42 42 42 42 41 41 41 41 40 39 39 39 39 38 38 38 38 39 38 38 39 39 40 39 40 41 41 42 42 43 43 44 44 43 44 44 44 45 46 46 47 48
40 41 42 42 41 41 40 39 38 38 38 38 37 37 36 36 36 37 37 38 37 37 38 38 38 39 39 40 40 40 41 42 43 42 42 42 42 43 44 44 44 45 47
40 40 41 41 40 39 38 37 37 37 37 37 37 36 36 35 35 36 36 36 36 36 36 36 36 36 37 37 38 39 40 40 41 42 42 42 42 42 43 43 43 44 45
38 39 39 38 37 36 35 35 35 35 35 35 35 34 34 34 34 34 34 34 34 34 34 34 34 35 35 36 37 37 38 39 40 41 41 42 41 41 41 42 42 42 43
37 36 35 35 34 33 33 34 34 34 34 34 33 33 33 33 33 33 33 33 32 32 33 33 33 33 34 35 36 36 37 38 39 40 40 41 40 40 40 40 41 41 42
35 35 35 34 33 34 34 34 33 33 33 32 32 32 32 32 32 32 32 32 32 32 32 32 33 33 34 35 36 37 37 37 38 38 39 39 39 39 40 40 41 41 41
34 34 35 34 33 33 33 33 32 32 31 31 31 31 31 31 31 31 32 32 32 32 32 32 32 33 34 35 36 36 36 37 37 37 37 37 37 37 38 39 40 41 42
34 34 33 33 32 32 32 31 31 31 31 30 30 30 30 30 30 31 31 31 31 32 32 32 33 33 34 34 34 34 34 35 35 35 35 35 36 37 38 38 39 40 41
33 33 32 32 32 32 32 32 31 31 30 30 29 29 29 29 30 30 31 32 31 31 32 32 32 32 32 33 33 33 33 33 33 34 34 35 36 37 38 38 39 40 41
32 31 30 30 31 31 31 30 30 29 29 28 29 29 29 29 29 29 30 30 31 31 31 31 31 31 32 32 31 31 32 32 33 33 34 35 35 36 38 38 39 40 41
31 30 30 30 29 29 29 29 29 29 28 28 29 28 28 28 28 29 29 30 30 31 31 31 31 31 31 31 31 31 32 32 32 33 34 34 35 36 38 39 39 40 41
31 30 29 29 28 27 27 28 28 28 28 28 28 28 28 27 28 29 29 30 30 31 31 31 31 31 31 31 31 32 32 33 33 34 34 35 36 37 38 39 39 40 41
31 30 29 29 28 27 27 27 27 27 28 28 28 28 29 29 29 30 30 30 30 31 31 32 32 32 31 31 32 32 32 33 33 34 35 36 36 37 38 39 39 40 41
30 29 29 28 28 28 27 27 27 27 27 27 28 28 29 29 30 30 31 30 30 31 31 32 31 31 31 31 32 32 32 33 34 34 35 36 37 37 38 39 39 40 40
29 28 28 28 28 28 28 28 27 27 27 28 28 29 29 30 30 31 31 31 31 31 31 30 31 31 32 32 32 32 33 33 34 35 36 37 37 38 38 39 39 39 40
29 28 28 28 28 28 28 28 27 27 27 28 28 29 30 30 31 31 31 31 31 31 31 31 31 32 32 32 31 32 32 33 34 35 36 36 37 37 38 38 38 38 38
29 28 28 28 28 28 28 28 28 28 28 28 29 30 30 31 31 31 31 31 31 31 31 31 31 31 31 31 31 31 32 33 33 34 35 36 36 36 36 37 37 37 37
29 29 29 29 29 29 29 29 29 29 30 30 30 31 31 31 31 31 31 31 31 31 31 30 30 31 31 31 31 32 32 32 33 34 34 34 34 34 34 35 35 36 36
30 29 29 30 30 30 30 30 30 31 32 32 31 31 32 32 32 32 32 31 31 31 31 31 31 31 32 32 32 33 33 33 33 33 32 32 32 33 33 33 34 35 35
30 30 31 31 31 31 31 32 32 32 32 32 32 32 32 32 32 32 31 31 31 30 30 31 31 31 31 31 32 32 32 31 31 31 31 31 32 33 33 33 33 34 34
32 32 32 32 32 32 33 33 33 33 33 33 33 33 33 33 33 32 31 30 30 30 30 30 31 31 31 31 31 31 31 31 30 30 30 31 31 32 32 32 32 32 31
Wind_Direction
276 276 277 278 279 279 279 279 279 281 282 281 279 278 277 276 275 274 273 271 269 269 269 268 268 268 269 267 266 265 264 263 262 261 260 260 261 261 262 262 262 263 263
276 277 278 278 278 278 278 279 280 280 280 280 279 279 277 276 276 275 274 272 269 268 268 268 269 269 269 268 267 265 264 263 262 262 261 262 262 263 263 263 263 263 263
276 277 277 277 278 278 278 279 280 280 279 279 278 278 277 276 276 275 274 272 270 269 268 268 268 268 269 269 267 266 264 263 263 263 263 263 263 263 263 263 263 263 264
277 278 278 278 279 280 280 279 279 279 279 278 277 277 276 276 276 275 275 272 270 269 268 269 269 269 269 269 267 265 264 264 264 264 264 264 263 263 263 263 262 263 263
279 280 280 280 280 280 280 280 280 279 279 277 276 275 275 275 275 275 274 273 272 271 270 271 271 270 269 269 267 266 265 264 264 265 265 264 264 263 263 264 264 264 265
280 281 281 281 280 281 281 280 280 279 277 276 275 275 276 275 275 275 274 273 273 272 272 271 271 271 269 269 268 266 264 264 264 265 266 266 264 263 263 265 265 265 266
281 281 281 281 281 281 281 280 279 278 277 276 276 275 276 275 275 276 275 274 274 274 274 273 273 272 271 270 269 266 265 265 265 265 266 266 265 264 265 266 268 268 268
282 282 282 282 281 280 279 279 279 278 277 277 276 275 276 276 276 276 275 275 276 276 275 274 274 273 273 271 269 268 267 266 266 266 266 266 266 266 266 267 268 269 269
283 283 282 281 280 279 278 278 278 278 278 278 277 276 275 276 276 276 276 275 276 276 276 276 275 274 273 273 271 269 268 267 267 267 266 266 266 266 267 268 268 269 270
284 283 282 281 279 278 279 279 279 279 278 278 276 275 275 276 275 276 276 276 276 277 277 277 276 275 274 274 273 271 270 269 268 268 268 267 266 267 268 269 270 271 272
282 283 282 280 279 279 279 279 279 278 278 277 277 276 276 276 276 277 277 277 277 277 277 277 276 276 275 276 275 273 271 270 269 269 268 267 266 267 269 270 272 273 274
282 282 281 280 280 280 279 279 279 278 278 277 277 277 277 276 276 276 277 278 278 278 279 279 278 277 277 278 277 275 272 271 270 269 268 267 267 268 270 272 274 275 276
281 281 280 279 280 280 280 278 278 278 278 277 277 277 277 276 275 275 277 278 279 279 280 280 280 280 280 280 279 277 274 273 271 269 269 268 268 269 270 273 275 277 278
281 280 278 278 280 280 278 277 277 278 276 276 277 278 278 277 276 277 278 278 279 280 280 280 282 282 283 282 279 277 276 275 273 270 269 269 270 271 273 274 276 278 279
281 279 278 278 279 279 278 277 277 277 275 276 278 280 280 279 278 278 280 279 279 280 280 282 283 284 283 281 279 278 277 276 274 273 271 270 271 273 275 277 278 280 281
280 279 278 279 279 279 278 277 276 276 275 275 277 279 279 279 279 280 281 281 280 281 282 283 285 285 284 281 279 279 278 276 275 274 273 272 273 275 277 278 280 281 282
279 278 276 276 278 278 278 277 276 275 275 275 276 277 277 278 280 281 281 282 282 283 283 284 284 285 284 282 280 279 278 277 276 275 276 275 275 276 277 280 281 282 283
277 276 275 275 275 276 278 277 275 274 275 275 275 277 278 279 281 282 282 284 284 284 284 284 284 285 285 283 281 280 280 279 278 277 277 278 278 279 280 281 283 284 286
276 274 274 274 275 275 276 277 276 275 274 274 275 277 279 280 281 282 283 284 284 285 285 285 285 285 285 284 283 281 281 280 280 279 279 280 280 281 282 283 285 286 287
274 273 273 273 273 274 276 276 276 275 275 275 276 278 279 280 281 282 283 284 285 285 285 285 286 287 287 286 284 283 281 281 281 281 281 281 281 282 283 284 286 287 288
273 272 273 272 273 273 274 275 276 276 276 277 278 279 281 283 283 283 284 285 285 285 284 285 286 287 287 286 286 285 282 282 282 283 283 283 283 283 284 286 287 288 289
272 271 272 273 273 273 274 275 275 276 276 277 278 280 283 284 284 284 284 284 284 285 284 285 286 287 288 287 287 286 285 283 283 285 286 286 285 284 285 287 289 289 290
269 270 272 273 273 273 274 274 275 276 277 278 279 281 283 284 284 285 285 284 284 285 285 285 285 286 287 288 287 287 288 287 286 286 287 287 287 287 287 289 290 290 291
269 270 271 272 273 273 274 275 277 278 279 279 279 280 282 283 284 285 285 285 285 285 284 284 285 286 287 287 288 288 289 290 290 288 287 287 288 289 290 291 291 292 292
270 271 272 272 272 273 274 276 278 279 280 280 280 281 282 283 284 285 285 285 285 285 285 285 286 287 287 287 288 289 290 291 291 290 289 289 289 290 291 292 293 294 294
271 272 272 272 273 274 275 276 277 279 280 281 281 282 282 283 284 283 282 282 283 284 285 286 286 287 288 288 288 289 291 291 291 291 290 291 292 292 293 293 295 295 295